Regional Weather Roundup
Issued by NWS Goodland, KS

Home | Current Version | Previous Version | Text Only | Print | Product List | Glossary Off
Versions: 1 2 3 4 5 6 7 8 9 10 11 12 13 14 15 16 17 18 19 20 21 22 23 24 25 26 27 28 29 30 31 32 33 34 35 36 37 38 39 40 41 42 43 44 45 46 47 48 49 50

000
ASUS43 KGLD 150308
RWRGLD

GOODLAND FORECAST AREA HOURLY WEATHER ROUNDUP
NATIONAL WEATHER SERVICE GOODLAND KS
800 PM MST THU DEC 14 2017

...OFFICIAL OBSERVATIONS...

CITY           SKY/WX    TMP DP  RH WIND       PRES   REMARKS
GOODLAND KS    CLOUDY    30  21  69 NW10      30.23R
HILL CITY KS   CLOUDY    35  28  75 NW5       30.23R
IMPERIAL NEB   CLOUDY    32  23  69 N10       30.23S
MCCOOK NEB     CLOUDY    33  24  69 NW10      30.23R
AKRON CO       CLEAR     19  15  84 NW6       30.23S
BURLINGTON CO  CLEAR     18  13  80 NW8       30.24R
LIMON CO       CLEAR     18  16  92 NW10      30.24R WCI   6
$$

...UNOFFICIAL OBSERVATIONS...

CITY           SKY/WX    TMP DP  RH WIND       PRES   REMARKS
COLBY KS       CLOUDY    32  27  80 N7        30.24S
LENORA KS        N/A     34  32  92 NW8         N/A
NORTON KS      CLOUDY    34  21  60 NW9       30.21
SHARON SPRINGS   N/A     24  19  82 W6          N/A
KIT CARSON CO    N/A     18  12  78 CALM        N/A
YUMA CO        FAIR      23  14  68 NW8       30.24S
$$




USA.gov is the U.S. government's official web portal to all federal, state and local government web resources and services.